Torna al catalogo

STARLINK-34833

AttivoComunicazioniVLEO
NORAD 65218·PAYLOAD·🇺🇸 United States

Lanciato Aug 14, 2025 da Cape Canaveral Space Force Station

Loading…

Prossimi Passaggi (prossime 24 ore)

TLE

AggiornatoSource: CelesTrak SupGP

Epoca: Sep 15, 2026, 03:16 UTC

1 65218C 25176W   26258.13659722  .00073497  00000+0  21714-2 0  2585
2 65218  53.1593 348.9242 0001122  92.6132 129.3184 15.34355912    18

Traccia STARLINK-34833 in tempo reale con AllMySat

Download on the App Store